Regional Weather Roundup
Issued by NWS

Home | Current Version | Previous Version | Graphics & Text | Print | Product List | Glossary Off
Versions: 1 2 3 4 5 6 7 8 9 10 11 12 13 14 15 16 17 18 19 20 21 22 23 24 25 26 27 28 29 30 31 32 33 34 35 36 37 38 39 40 41 42 43 44 45 46 47 48 49 50

000
ASUS43 KMKX 281100
RWRWI

WISCONSIN REGIONAL WEATHER ROUNDUP
NATIONAL WEATHER SERVICE MILWAUKEE/SULLIVAN WI
600 AM CDT SAT MAY 28 2016

NOTE: "FAIR" INDICATES FEW OR NO CLOUDS BELOW 12,000 FEET WITH NO
SIGNIFICANT WEATHER AND/OR OBSTRUCTIONS TO VISIBILITY.

WIZ001-002-006>008-014>016-023>028-281200-
NORTHWEST WISCONSIN

CITY           SKY/WX    TMP DP  RH WIND       PRES   REMARKS
SUPERIOR ARPT  FOG       44  44 100 CALM      29.81S VSB 1
ASHLAND        CLOUDY    48  46  93 SW5       29.78S
HAYWARD        FOG       55  55 100 CALM      29.77F VSB 3/4
SIREN          CLOUDY    53  53  97 N6        29.78S FOG
CUMBERLAND     FOG       55  55 100 CALM      29.78S VSB 1
RICE LAKE      CLOUDY    59  58  95 CALM      29.77S FOG
CHETEK         CLOUDY    60  60 100 SE3       29.77R FOG
LADYSMITH      CLOUDY    64  63  97 W5        29.78R FOG
EAU CLAIRE     CLOUDY    61  60  97 N13       29.70F FOG
MENOMONIE      FOG       63  63  99 CALM      29.76S VSB 1/2
NEW RICHMOND   FOG       61  61 100 N6        29.76F VSB 1
OSCEOLA        FOG       58  58 100 CALM      29.79S VSB 1/2
$$

WIZ003>005-009-010-017-018-281200-
NORTH CENTRAL WISCONSIN

CITY           SKY/WX    TMP DP  RH WIND       PRES   REMARKS
MANITOWISH WTR NOT AVBL
ARBOR VITAE    CLOUDY    65  64  94 CALM      29.79S
WOODRUFF       CLOUDY    65  64  94 CALM      29.79S
RHINELANDER    CLOUDY    66  64  93 CALM      29.79F FOG
EAGLE RIVER      N/A     64  64  99 SE6       29.80S FOG
LAND O LAKES   CLOUDY    64  64  98 SE3       29.81S FOG
PHILLIPS       CLOUDY    64  64 100 CALM      29.77S
TOMAHAWK       CLOUDY    65  63  96 CALM      29.79S FOG
MEDFORD        CLOUDY    64  64 100 CALM      29.76F FOG
MERRILL        CLOUDY   N/A N/A N/A SE3       29.78F FOG
$$

WIZ029-030-035-036-043>047-281200-
CENTRAL WISCONSIN

CITY           SKY/WX    TMP DP  RH WIND       PRES   REMARKS
WAUSAU         CLOUDY    69  66  90 SE7       29.76S FOG
MOSINEE        CLOUDY    66  66 100 SE5       29.79S FOG
MARSHFIELD     CLOUDY    68  65  90 E3        29.75F FOG
STEVENS POINT  CLOUDY    66  65  97 SE5       29.78S FOG
WAUPACA        DRIZZLE   69  69 100 SE7       29.79S
WAUTOMA        LGT RAIN  67  66  97 SE6       29.78F
WISC RAPIDS    LGT RAIN  68  65  90 S7        29.77S
CAMP DOUGLAS   DRIZZLE   68 N/A N/A E8        29.73F
$$

WIZ011>013-019>022-031-037>040-048>050-281200-
NORTHEAST WISCONSIN

CITY           SKY/WX    TMP DP  RH WIND       PRES   REMARKS
ANTIGO         CLOUDY    65  65 100 S7        29.81S FOG
SHAWANO        CLOUDY    68  67  94 S5        29.80S FOG
OCONTO         CLOUDY   N/A N/A N/A S3        29.81S
STURGEON BAY   NOT AVBL
GREEN BAY      CLOUDY    68  65  90 S3        29.81S
MANITOWOC      CLOUDY    57  57 100 S12       29.85R FOG
APPLETON       MOCLDY    66  66 100 S8        29.80S
CLINTONVILLE   HVY RAIN  68  64  88 S9        29.80S
OSHKOSH        CLOUDY    67  64  90 S7        29.80S
$$

WIZ032>034-041-042-053>061-281200-
SOUTHWEST WISCONSIN

CITY           SKY/WX    TMP DP  RH WIND       PRES   REMARKS
LA CROSSE      LGT RAIN  67  65  93 SE9       29.73R
SPARTA         DRIZZLE   64  64 100 CALM      29.75R
VIROQUA        CLOUDY    66  66 100 E5        29.73F
BOSCOBEL       LGT RAIN  67  65  93 SW6       29.73R FOG
PRAIRIE DU CHI LGT RAIN  65  64  95 CALM      29.72R
PLATTEVILLE    CLOUDY    67  67  97 S16       29.74R
$$

WIZ056-057-062-063-064-067-068-281200-
SOUTH CENTRAL WISCONSIN

CITY           SKY/WX    TMP DP  RH WIND       PRES   REMARKS
REEDSBURG      CLOUDY    67  67  99 SE6       29.74S
BARABOO/DELLS  CLOUDY    67  64  89 SE9       29.75F
LONE ROCK      NOT AVBL
MINERAL POINT  CLOUDY    68  68 100 S14G21    29.75R
MADISON        CLOUDY    69  66  90 S16       29.77R
MIDDLETON      CLOUDY    69  67  94 S7        29.77S
WATERTOWN      CLOUDY    68  67  97 S12       29.80F
MONROE         CLOUDY    66  64  94 S17G23    29.78S
JANESVILLE     CLOUDY    70  66  88 S13       29.79F
$$

WIZ051-052-058>065-066-070>072-281200-
SOUTHEAST WISCONSIN

CITY           SKY/WX    TMP DP  RH WIND       PRES   REMARKS
MILWAUKEE      CLOUDY    67  63  87 S13       29.84S
WAUKESHA       MOCLDY    66  64  94 S12       29.85S
MILWAUKEE/TIMM RAIN      68  61  77 S9        29.84S
RACINE         CLOUDY    64  61  90 S12       29.87R
BURLINGTON     CLOUDY    66  64  93 S6        29.83S FOG
KENOSHA        CLOUDY    68  63  84 S8        29.85S
FOND DU LAC    CLOUDY    68  65  90 S10       29.81S
SHEBOYGAN      CLOUDY    62  60  93 SE7       29.83F FOG
WEST BEND      RAIN      68  63  83 SE5       29.83F
JUNEAU         CLOUDY    67  64  93 SE10      29.82S
$$

LSZ147-162-281200-
LAKE SUPERIOR

STATION/POSITION TIME  TEMP    WIND        PRES    WAVE
                       AIR SEA DIR/SP/G            HT/PER
                 (UTC) (F)     (DEG/KT/KT) (MB)    (FT/S)
W MID LAKE BUOY  0950   40 38   60/ 10/ 12 1008.4F   3/ 4
DEVILS ISLAND    1000   43      80/  3/  3 1008.9R
SAXON HARBOR     1000   47      CALM  /  2 1007.8R
$$

LMZ867-665-643>646-281200-
LAKE MICHIGAN

STATION/POSITION TIME  TEMP    WIND        PRES    WAVE
                       AIR SEA DIR/SP/G            HT/PER
                 (UTC) (F)     (DEG/KT/KT) (MB)    (FT/S)
CHAMBERS ISLAND  1040   61     150/  6/ 12 1010.2R
N MID LAKE BUOY  0950   54 46  180/ 12/ 14 1010.6R   1
NORTHPORT PIER   1000   57     160/  6/ 12 1010.5R
SISTER BAY       1020   58     170/ 14/ 17   N/A
ALGOMA LAKESHORE 0917          200/  6/  7   N/A
KEWAUNEE LAKESHO 1000   53     170/  9/ 12 1009.8R
SHEBOYGAN LAKESH 1000   54     170/ 14/ 15 1011.1R
PORT WASHINGTON  1040   56     170/  2/  7 1011.2S
S MID LAKE BUOY  0950   56 50  140/ 10/ 12 1011.4F   1/ 3
KENOSHA   LAKESH 1000   57     170/ 12/ 15 1010.8S
$$

TC  - TEMPERATURE IN CELSIUS
VSB - VISIBILITY IN STATUTE MILES
WCI - WIND CHILL INDEX
HX  - HEAT INDEX





USA.gov is the U.S. government's official web portal to all federal, state and local government web resources and services.